Weather History for Springfield, MO

Change the Weather History Date:

Wednesday, May 16, 2012

  Actual Average Record
Temperature  
Mean Temperature 67 °F 65 °F  
Max Temperature 82 °F 75 °F 93 °F (1972)
Min Temperature 51 °F 55 °F 36 °F (1997)
Degree Days  
Heating Degree Days 0 3  
Month to date heating degree days 21 67  
Since 1 July heating degree days 3662 4541  
Cooling Degree Days 2 3  
Month to date cooling degree days 58 30  
Year to date cooling degree days 136 55  
Growing Degree Days 16 (Base 50)    
Moisture  
Dew Point 49 °F    
Average Humidity 58    
Maximum Humidity 83    
Minimum Humidity 32    
Precipitation  
Precipitation 0.00 in 0.16 in 2.55 in (1896)
Month to date precipitation 0.63 2.81  
Year to date precipitation 11.10 15.74  
Snow  
Snow 0.00 in - - ()
Month to date snowfall 0.0  
Since 1 July snowfall 2.8  
Snow Depth 0.00 in    
Sea Level Pressure  
Sea Level Pressure 30.02 in    
Wind  
Wind Speed 5 mph (North)    
Max Wind Speed 14 mph    
Max Gust Speed 23 mph    
Visibility 10 miles    
Events      
T = Trace of Precipitation, MM = Missing Value Source: NWS Daily Summary

Daily Weather History Graph

Daily Weather History Graph

Search for Another Location

Airport:

Trip Planner

Search our weather history database for the weather conditions in past years. The results will help you decide how hot, cold, wet, or windy it might be!

Date:

Astronomy

May. 16, 2012 Rise Set
Actual Time 6:03 AM CDT 8:16 PM CDT
Civil Twilight 5:34 AM CDT 8:45 PM CDT
Nautical Twilight 4:58 AM CDT 9:21 PM CDT
Astronomical Twilight 4:19 AM CDT 10:01 PM CDT
Moon 3:28 AM CDT (5/16) 4:36 PM CDT (5/16)
Length of Visible Light 15h 11m
Length of Day
14h 12m
Waning Crescent, 16% of the Moon is Illuminated
May 16
Waning Crescent
May 20
New
May 28
First Quarter
Jun 4
Full
Jun 11
Last Quarter

Hourly Weather History & Observations

Time (CDT) Temp. Dew Point Humidity Pressure Visibility Wind Dir Wind Speed Gust Speed Precip Events Conditions
12:52 AM 57.9 °F 48.0 °F 70% 30.02 in 10.0 mi South 3.5 mph - N/A   Clear
1:52 AM 57.0 °F 48.0 °F 72% 30.01 in 10.0 mi SSW 3.5 mph - N/A   Clear
2:52 AM 54.0 °F 46.9 °F 77% 30.01 in 10.0 mi Calm Calm - N/A   Clear
3:52 AM 53.1 °F 46.9 °F 80% 30.01 in 10.0 mi Calm Calm - N/A   Clear
4:52 AM 54.0 °F 46.9 °F 77% 30.02 in 10.0 mi Calm Calm - N/A   Clear
5:52 AM 52.0 °F 46.9 °F 83% 30.02 in 10.0 mi Calm Calm - N/A   Clear
6:52 AM 55.9 °F 48.0 °F 75% 30.04 in 10.0 mi Calm Calm - N/A   Clear
7:52 AM 61.0 °F 50.0 °F 67% 30.05 in 10.0 mi NW 4.6 mph - N/A   Clear
8:52 AM 66.9 °F 52.0 °F 59% 30.05 in 10.0 mi NW 5.8 mph - N/A   Clear
9:52 AM 73.0 °F 52.0 °F 48% 30.05 in 10.0 mi WNW 8.1 mph - N/A   Clear
10:52 AM 75.9 °F 55.0 °F 48% 30.05 in 10.0 mi NNW 10.4 mph 16.1 mph N/A   Clear
11:52 AM 77.0 °F 53.1 °F 43% 30.04 in 10.0 mi WNW 10.4 mph 16.1 mph N/A   Clear
12:52 PM 79.0 °F 53.1 °F 40% 30.03 in 10.0 mi NW 9.2 mph - N/A   Clear
1:52 PM 80.1 °F 50.0 °F 35% 30.02 in 10.0 mi NNE 10.4 mph - N/A   Clear
2:52 PM 80.1 °F 48.0 °F 32% 30.02 in 10.0 mi NNE 12.7 mph - N/A   Clear
3:52 PM 80.1 °F 48.9 °F 34% 30.00 in 10.0 mi Variable 5.8 mph - N/A   Clear
4:52 PM 79.0 °F 46.9 °F 32% 29.99 in 10.0 mi NNW 6.9 mph 17.3 mph N/A   Clear
5:52 PM 78.1 °F 46.0 °F 32% 30.00 in 10.0 mi North 5.8 mph - N/A   Clear
6:52 PM 77.0 °F 46.9 °F 34% 29.99 in 10.0 mi NNE 5.8 mph - N/A   Clear
7:52 PM 72.0 °F 48.0 °F 43% 30.00 in 10.0 mi North 6.9 mph - N/A   Clear
8:52 PM 68.0 °F 48.0 °F 49% 30.00 in 10.0 mi NNE 5.8 mph - N/A   Clear
9:52 PM 66.0 °F 48.0 °F 52% 30.01 in 10.0 mi ENE 5.8 mph - N/A   Clear
10:52 PM 64.9 °F 46.9 °F 52% 30.01 in 10.0 mi ENE 6.9 mph - N/A   Clear
11:52 PM 57.9 °F 46.0 °F 65% 30.02 in 10.0 mi Calm Calm - N/A   Clear